SCP
0 1 2 2 2 3 3 2 2 3 2 2 1 1 2 2 2 4 5 6 6 5 4 3 1 2 3 1 1 1 2 1 0 0 0 0 0 0 0 1 1 0 1
0 0 1 1 1 1 2 3 3 3 2 1 1 1 1 1 2 2 3 3 3 3 3 2 1 2 1 1 2 1 1 1 2 1 0 1 0 0 0 0 0 0 0
0 0 0 1 0 1 1 2 2 1 1 1 0 1 1 1 1 1 2 1 2 2 2 2 1 1 1 1 1 1 1 1 2 2 1 1 0 0 0 0 0 0 0
0 0 0 0 1 1 1 1 1 1 1 1 0 0 0 0 0 1 1 0 0 0 1 0 0 0 0 0 0 0 0 0 0 1 1 1 0 0 0 0 0 0 -0
0 0 0 0 0 1 0 0 1 0 0 0 1 0 0 0 0 0 0 0 0 0 0 0 0 0 0 0 0 0 0 0 0 0 0 0 0 0 0 0 0 0 0
0 0 0 0 0 -0 0 0 1 0 0 -0 -0 0 0 0 0 0 0 0 0 0 0 0 0 0 0 0 0 0 0 0 0 0 0 0 0 0 0 0 0 0 0
0 0 0 0 0 0 0 0 0 1 1 1 0 0 0 1 0 0 0 0 0 0 0 0 0 0 0 0 0 0 0 0 0 0 0 0 0 0 0 1 0 0 0
0 0 0 0 0 0 0 1 1 1 1 2 2 1 1 1 0 0 0 0 0 0 0 0 0 0 0 0 0 0 0 0 0 0 0 0 0 0 0 1 0 -0 0
0 0 0 0 0 0 0 0 1 1 1 1 1 1 2 1 0 0 0 0 0 0 0 0 0 0 0 0 0 0 0 0 0 0 0 0 0 0 0 0 0 0 0
0 0 0 0 0 0 0 0 1 1 1 1 1 1 1 2 0 0 0 0 0 0 0 0 0 0 0 0 0 0 0 0 0 0 0 0 0 0 -0 0 0 0 0
0 0 0 0 0 0 0 0 0 1 1 1 1 1 1 1 1 0 0 0 0 0 0 0 0 0 0 0 0 0 0 0 0 0 0 0 0 0 0 0 0 0 0
0 0 0 0 0 0 0 0 0 0 1 1 1 1 1 1 0 0 0 0 0 0 0 0 0 0 0 0 0 0 0 0 0 0 0 0 0 0 0 0 0 0 0
0 0 0 0 0 0 0 0 0 0 0 0 0 0 1 1 1 0 0 0 0 0 0 0 0 0 0 0 0 0 0 0 -0 -0 0 0 0 0 0 0 0 0 0
-0 -0 0 0 0 0 0 0 0 0 0 0 0 0 0 0 0 0 0 0 0 0 0 0 0 0 0 0 0 0 -0 -0 -0 -0 -0 0 0 0 0 0 0 0 0
-0 0 0 0 0 0 0 0 0 0 0 0 0 0 0 0 0 0 0 0 0 0 0 0 0 0 -0 0 0 -0 -0 -0 -0 -0 0 0 0 0 0 0 0 0 0
-0 0 0 0 0 0 0 0 0 0 0 0 0 0 0 0 0 0 0 0 0 0 0 0 -0 -0 -0 0 -0 -0 -0 -0 -0 0 0 0 0 0 0 0 0 0 0
0 0 0 0 0 0 0 0 0 0 0 0 0 0 0 0 0 0 0 0 0 0 0 0 -0 -0 -0 -0 -0 -0 -0 -0 0 0 0 0 0 0 -0 0 0 0 0
0 0 0 0 0 0 0 0 0 0 0 0 0 0 0 0 0 0 0 0 0 0 0 0 -0 -0 -0 -0 0 -0 0 0 0 0 0 0 0 0 -0 0 0 0 0
0 0 0 -0 0 0 0 0 0 0 0 0 0 0 0 0 0 0 0 0 0 0 0 0 0 0 0 0 0 0 0 0 0 0 0 0 -0 0 0 0 0 0 0
0 -0 -0 0 0 0 0 0 0 0 0 0 0 0 0 0 0 0 0 0 0 0 0 0 0 0 0 0 0 0 0 0 0 0 -0 0 -0 0 0 0 0 0 0
0 0 0 -0 0 -0 0 -0 -0 -0 0 0 0 0 0 0 0 0 0 0 0 0 0 0 0 0 0 0 0 0 0 0 0 0 0 0 0 0 0 0 -0 0 0
0 0 0 0 0 0 -0 0 -0 -0 0 0 0 0 0 0 0 0 0 0 0 0 0 0 0 0 0 0 0 0 0 0 0 0 0 -0 0 0 0 -0 0 0 0
0 0 0 0 0 0 0 0 0 -0 -0 0 0 0 0 0 0 0 -0 -0 0 0 0 0 0 0 0 0 0 0 0 0 0 0 0 0 0 0 0 0 0 0 0
0 0 0 0 0 0 0 0 -0 -0 -0 -0 0 0 0 0 0 0 0 0 0 0 0 0 0 0 0 0 0 0 0 0 0 -0 0 0 0 0 0 0 0 -0 -0
0 0 0 0 0 0 0 0 0 0 0 0 0 0 0 0 0 0 0 0 0 0 0 0 0 0 0 0 0 0 0 0 0 0 0 0 0 0 0 0 0 0 -0
0 0 0 0 0 0 0 0 0 0 0 0 0 0 0 0 0 0 0 0 0 0 0 0 0 0 0 0 0 0 0 0 0 0 0 0 0 0 0 -0 -0 0 -0
Wind_Speed_500mb
19 20 17 18 25 31 35 36 35 37 38 35 33 35 34 37 39 41 43 48 49 51 49 44 49 49 55 48 62 67 67 72 73 71 61 55 61 50 53 60 58 56 51
23 18 19 21 23 28 29 27 28 28 20 22 27 29 30 33 32 34 37 38 39 42 44 45 43 42 44 44 45 50 56 61 64 64 52 54 60 43 40 52 46 43 46
29 24 26 20 23 27 30 24 23 23 22 24 28 29 30 31 32 31 30 32 31 29 29 30 28 27 26 27 31 38 42 52 56 58 52 53 59 58 55 44 42 43 41
33 34 46 44 37 42 27 28 24 21 21 25 29 29 33 32 32 30 29 29 29 27 25 23 21 22 24 26 30 35 37 41 43 46 44 45 51 49 52 35 43 38 37
36 32 36 46 56 45 60 49 43 49 48 30 37 41 35 34 34 33 30 29 28 26 22 18 16 19 23 23 24 27 34 36 38 40 45 43 47 51 41 43 46 34 33
44 41 33 35 52 63 41 67 82 68 63 69 63 53 47 39 40 40 34 30 28 27 22 17 16 18 19 22 24 28 35 41 41 41 44 43 47 45 49 41 39 45 48
48 47 45 42 40 40 42 46 50 83 85 90 89 70 58 51 47 43 42 36 33 31 25 21 14 15 24 18 23 28 31 35 42 47 48 48 45 43 45 45 38 44 69
55 54 52 52 49 44 43 43 45 48 56 71 84 84 67 61 59 55 53 50 37 35 32 28 25 24 25 24 31 34 32 30 33 39 45 49 51 53 47 52 63 67 58
64 61 57 55 55 50 49 46 42 40 43 49 61 72 72 67 67 65 61 62 50 44 38 36 34 35 33 33 37 43 39 38 38 46 46 55 59 62 53 52 54 69 50
61 60 57 56 56 55 51 48 45 46 43 46 52 58 67 64 67 76 73 60 53 49 45 44 50 50 44 40 42 46 45 40 42 41 39 49 52 58 53 59 57 52 42
60 61 62 63 66 61 54 52 51 49 50 48 48 47 52 63 65 79 80 78 64 54 54 48 46 51 47 39 41 52 57 56 63 60 47 47 44 48 56 59 54 44 42
65 65 66 69 65 66 66 60 56 56 56 52 46 47 47 48 60 67 78 82 79 68 64 53 49 53 57 50 47 58 59 62 67 60 47 45 48 49 50 39 44 42 38
61 61 54 62 70 66 65 63 66 65 66 65 62 60 58 52 49 61 63 66 66 67 63 54 55 56 58 59 60 63 67 66 59 49 47 49 47 41 27 31 33 32 32
67 65 63 63 67 64 64 59 64 68 73 75 72 71 66 64 60 53 67 71 66 65 63 62 65 62 61 59 62 66 58 48 47 52 47 41 33 24 34 26 24 32 26
65 64 64 62 63 62 65 61 76 72 74 76 78 76 72 72 70 65 59 52 58 67 62 57 55 51 55 54 52 50 49 46 41 45 40 35 33 38 26 21 29 33 23
66 62 60 60 62 64 67 66 77 89 83 81 78 69 71 71 68 66 68 68 60 53 51 55 60 62 65 60 55 51 47 47 38 36 35 30 39 37 26 31 32 27 29
54 55 59 58 60 64 65 67 66 66 74 99 84 91 74 54 67 71 67 69 69 73 68 61 60 61 60 57 52 48 45 41 34 34 33 31 44 31 39 36 29 27 27
53 58 62 63 65 66 66 66 65 66 64 70 72 89 94 95 77 49 62 69 61 64 59 59 61 56 57 55 49 45 39 36 36 39 39 38 35 37 43 33 30 29 29
55 59 61 64 62 64 63 67 66 60 63 63 56 61 73 73 71 80 53 58 57 54 54 57 55 57 54 50 46 43 38 40 37 40 42 49 51 46 34 31 31 30 30
52 59 61 62 61 56 61 62 62 65 70 58 59 58 55 64 74 78 82 70 58 56 53 52 58 55 52 46 43 40 39 42 40 45 49 43 49 45 39 35 32 31 33
42 43 44 49 49 50 54 56 62 63 59 59 64 64 60 56 66 71 72 70 67 57 51 53 53 51 47 45 42 41 41 44 43 46 39 45 39 38 35 34 32 32 34
27 21 17 24 26 32 43 52 57 59 60 55 55 53 52 53 55 63 66 68 67 65 58 56 50 46 47 42 45 44 49 41 42 41 36 42 41 40 38 40 36 32 36
25 19 13 16 19 10 12 44 44 53 50 53 50 50 51 52 49 57 63 56 58 63 61 51 55 46 39 45 44 49 46 42 38 31 45 45 40 43 44 41 37 35 35
34 27 31 30 33 34 44 46 45 46 41 44 44 41 45 47 48 53 55 53 58 53 50 48 47 46 45 40 46 39 42 44 46 55 47 42 41 44 42 42 42 42 40
35 38 30 34 40 41 44 38 37 37 36 36 35 35 38 45 44 44 44 46 47 49 49 46 46 45 42 37 42 46 43 47 46 50 44 41 47 43 43 45 40 39 38
38 37 40 39 40 41 42 43 41 37 32 34 32 34 34 41 40 42 43 44 44 46 48 49 40 48 48 49 44 44 55 55 54 46 47 49 51 43 42 43 40 39 38
Wind_Direction_500mb
322 309 280 250 230 215 209 198 193 197 203 206 213 215 221 227 230 232 234 235 236 236 234 228 233 230 237 241 239 249 246 248 252 267 267 269 275 295 296 265 274 270 272
321 324 305 270 236 213 195 188 181 177 184 196 204 207 211 217 218 224 231 235 236 236 236 236 235 234 237 236 240 243 246 250 254 257 261 262 277 287 309 273 265 266 276
313 298 278 324 271 239 210 192 191 189 194 203 203 200 206 209 211 214 222 229 236 232 229 230 233 234 235 238 241 248 254 253 251 252 257 268 281 280 290 276 273 281 283
322 289 251 277 300 261 235 227 227 225 228 218 216 212 213 210 212 210 212 221 225 227 223 221 229 231 238 244 247 250 253 256 259 257 259 263 276 278 281 255 301 293 290
303 303 274 245 268 292 248 248 272 246 247 242 229 219 214 213 208 208 208 212 214 209 206 201 213 212 228 245 249 253 250 256 262 266 263 265 262 266 265 260 296 305 297
289 286 282 274 247 263 244 238 234 235 232 232 230 224 213 208 213 204 191 195 194 193 197 201 211 246 255 260 268 275 278 279 271 261 263 263 262 265 270 273 293 304 312
287 278 271 265 255 248 249 238 233 232 236 228 228 223 216 211 212 210 201 195 199 201 206 212 230 248 269 274 292 302 300 293 281 268 257 257 263 267 263 260 267 288 285
284 279 271 264 259 253 247 243 234 229 227 221 224 224 222 216 215 215 212 210 211 216 220 228 252 258 274 282 295 296 302 299 285 281 277 266 266 265 263 243 255 270 275
281 275 271 262 255 251 247 243 238 234 226 224 222 220 219 220 220 222 222 224 222 225 230 235 245 263 270 284 288 297 298 302 304 293 278 263 263 262 254 256 254 251 253
279 273 267 260 251 248 245 242 236 232 229 223 220 217 220 219 223 225 224 221 226 229 235 238 252 258 265 280 282 288 291 297 306 299 281 277 270 260 255 248 240 251 236
274 271 261 255 250 248 244 236 232 227 225 226 221 217 219 225 219 230 227 227 226 233 236 239 249 260 263 268 279 282 289 298 298 301 283 276 270 268 255 246 234 228 225
276 268 262 252 250 246 241 236 231 227 223 218 215 216 220 216 223 225 228 228 226 226 234 240 245 250 262 272 277 285 288 290 294 295 279 272 277 274 261 230 206 211 223
270 266 252 255 251 248 244 235 230 225 222 221 220 221 221 220 218 223 224 226 228 226 228 235 240 247 257 270 277 283 281 288 291 285 278 282 284 270 229 194 203 210 219
264 261 258 254 249 243 237 234 232 227 225 224 223 224 224 224 221 221 224 224 224 225 228 232 239 249 258 260 268 277 281 279 279 281 277 278 279 215 197 188 204 212 204
267 258 259 250 243 238 228 228 234 228 226 225 226 225 223 223 223 221 220 223 227 232 232 239 244 250 254 259 263 266 268 273 272 268 270 267 215 201 180 200 201 200 192
262 264 252 250 240 237 234 235 235 234 224 223 223 222 226 227 226 226 226 225 224 224 232 237 242 245 248 254 257 261 263 268 266 252 247 238 206 195 206 207 194 193 191
258 253 255 252 245 238 237 235 232 235 234 229 228 223 215 210 224 226 225 229 234 235 236 237 240 239 242 246 250 254 259 263 252 237 237 217 210 206 199 185 188 186 180
257 253 251 247 245 242 240 234 235 234 230 234 226 226 230 227 220 217 224 225 225 224 224 231 233 234 236 240 244 249 253 252 234 229 226 206 211 220 191 186 182 178 175
260 259 256 252 251 247 240 235 232 229 231 231 231 227 221 221 218 211 207 213 219 222 226 222 227 228 233 237 240 242 244 242 227 221 218 216 212 192 181 177 179 174 167
270 263 261 262 260 251 244 237 233 228 226 216 214 220 219 213 214 211 214 217 216 219 218 224 228 228 230 228 233 234 234 222 224 215 212 206 185 181 181 175 174 170 164
279 278 277 271 264 251 244 234 227 223 222 220 220 218 219 213 208 209 209 210 212 210 217 224 226 228 226 218 222 225 225 218 217 214 200 188 175 170 172 171 176 173 168
319 322 301 292 287 261 238 226 220 216 213 211 211 217 211 210 206 204 205 207 210 212 219 220 223 217 219 210 220 221 218 217 213 208 201 177 170 162 164 165 160 152 149
18 58 44 23 24 349 220 213 199 198 200 201 204 208 204 206 204 204 199 205 209 212 213 218 211 212 211 217 217 209 214 202 194 175 172 170 162 160 162 158 155 150 148
62 83 59 75 74 79 95 118 140 158 173 180 192 198 196 194 196 193 197 200 201 204 209 208 209 209 219 207 197 212 196 182 174 171 170 164 162 158 155 150 156 159 161
80 94 87 79 84 93 98 111 125 140 151 160 168 175 178 181 185 185 187 189 192 197 199 203 209 196 180 202 192 179 183 181 167 162 161 161 160 157 150 160 156 156 160
82 87 93 104 106 112 112 118 125 132 134 136 153 157 157 159 171 177 181 185 191 197 191 185 177 190 181 166 169 167 161 158 160 155 162 162 167 158 154 154 156 160 161
Wind_Speed_850mb
19 20 17 18 25 31 35 36 35 37 38 35 33 35 34 37 39 41 43 48 49 51 49 44 49 49 55 48 62 67 67 72 73 71 61 55 61 50 53 60 58 56 51
23 18 19 21 23 28 29 27 28 28 20 22 27 29 30 33 32 34 37 38 39 42 44 45 43 42 44 44 45 50 56 61 64 64 52 54 60 43 40 52 46 43 46
29 24 26 20 23 27 30 24 23 23 22 24 28 29 30 31 32 31 30 32 31 29 29 30 28 27 26 27 31 38 42 52 56 58 52 53 59 58 55 44 42 43 41
33 34 46 44 37 42 27 28 24 21 21 25 29 29 33 32 32 30 29 29 29 27 25 23 21 22 24 26 30 35 37 41 43 46 44 45 51 49 52 35 43 38 37
36 32 36 46 56 45 60 49 43 49 48 30 37 41 35 34 34 33 30 29 28 26 22 18 16 19 23 23 24 27 34 36 38 40 45 43 47 51 41 43 46 34 33
44 41 33 35 52 63 41 67 82 68 63 69 63 53 47 39 40 40 34 30 28 27 22 17 16 18 19 22 24 28 35 41 41 41 44 43 47 45 49 41 39 45 48
48 47 45 42 40 40 42 46 50 83 85 90 89 70 58 51 47 43 42 36 33 31 25 21 14 15 24 18 23 28 31 35 42 47 48 48 45 43 45 45 38 44 69
55 54 52 52 49 44 43 43 45 48 56 71 84 84 67 61 59 55 53 50 37 35 32 28 25 24 25 24 31 34 32 30 33 39 45 49 51 53 47 52 63 67 58
64 61 57 55 55 50 49 46 42 40 43 49 61 72 72 67 67 65 61 62 50 44 38 36 34 35 33 33 37 43 39 38 38 46 46 55 59 62 53 52 54 69 50
61 60 57 56 56 55 51 48 45 46 43 46 52 58 67 64 67 76 73 60 53 49 45 44 50 50 44 40 42 46 45 40 42 41 39 49 52 58 53 59 57 52 42
60 61 62 63 66 61 54 52 51 49 50 48 48 47 52 63 65 79 80 78 64 54 54 48 46 51 47 39 41 52 57 56 63 60 47 47 44 48 56 59 54 44 42
65 65 66 69 65 66 66 60 56 56 56 52 46 47 47 48 60 67 78 82 79 68 64 53 49 53 57 50 47 58 59 62 67 60 47 45 48 49 50 39 44 42 38
61 61 54 62 70 66 65 63 66 65 66 65 62 60 58 52 49 61 63 66 66 67 63 54 55 56 58 59 60 63 67 66 59 49 47 49 47 41 27 31 33 32 32
67 65 63 63 67 64 64 59 64 68 73 75 72 71 66 64 60 53 67 71 66 65 63 62 65 62 61 59 62 66 58 48 47 52 47 41 33 24 34 26 24 32 26
65 64 64 62 63 62 65 61 76 72 74 76 78 76 72 72 70 65 59 52 58 67 62 57 55 51 55 54 52 50 49 46 41 45 40 35 33 38 26 21 29 33 23
66 62 60 60 62 64 67 66 77 89 83 81 78 69 71 71 68 66 68 68 60 53 51 55 60 62 65 60 55 51 47 47 38 36 35 30 39 37 26 31 32 27 29
54 55 59 58 60 64 65 67 66 66 74 99 84 91 74 54 67 71 67 69 69 73 68 61 60 61 60 57 52 48 45 41 34 34 33 31 44 31 39 36 29 27 27
53 58 62 63 65 66 66 66 65 66 64 70 72 89 94 95 77 49 62 69 61 64 59 59 61 56 57 55 49 45 39 36 36 39 39 38 35 37 43 33 30 29 29
55 59 61 64 62 64 63 67 66 60 63 63 56 61 73 73 71 80 53 58 57 54 54 57 55 57 54 50 46 43 38 40 37 40 42 49 51 46 34 31 31 30 30
52 59 61 62 61 56 61 62 62 65 70 58 59 58 55 64 74 78 82 70 58 56 53 52 58 55 52 46 43 40 39 42 40 45 49 43 49 45 39 35 32 31 33
42 43 44 49 49 50 54 56 62 63 59 59 64 64 60 56 66 71 72 70 67 57 51 53 53 51 47 45 42 41 41 44 43 46 39 45 39 38 35 34 32 32 34
27 21 17 24 26 32 43 52 57 59 60 55 55 53 52 53 55 63 66 68 67 65 58 56 50 46 47 42 45 44 49 41 42 41 36 42 41 40 38 40 36 32 36
25 19 13 16 19 10 12 44 44 53 50 53 50 50 51 52 49 57 63 56 58 63 61 51 55 46 39 45 44 49 46 42 38 31 45 45 40 43 44 41 37 35 35
34 27 31 30 33 34 44 46 45 46 41 44 44 41 45 47 48 53 55 53 58 53 50 48 47 46 45 40 46 39 42 44 46 55 47 42 41 44 42 42 42 42 40
35 38 30 34 40 41 44 38 37 37 36 36 35 35 38 45 44 44 44 46 47 49 49 46 46 45 42 37 42 46 43 47 46 50 44 41 47 43 43 45 40 39 38
38 37 40 39 40 41 42 43 41 37 32 34 32 34 34 41 40 42 43 44 44 46 48 49 40 48 48 49 44 44 55 55 54 46 47 49 51 43 42 43 40 39 38
Wind_Direction_850mb
322 309 280 250 230 215 209 198 193 197 203 206 213 215 221 227 230 232 234 235 236 236 234 228 233 230 237 241 239 249 246 248 252 267 267 269 275 295 296 265 274 270 272
321 324 305 270 236 213 195 188 181 177 184 196 204 207 211 217 218 224 231 235 236 236 236 236 235 234 237 236 240 243 246 250 254 257 261 262 277 287 309 273 265 266 276
313 298 278 324 271 239 210 192 191 189 194 203 203 200 206 209 211 214 222 229 236 232 229 230 233 234 235 238 241 248 254 253 251 252 257 268 281 280 290 276 273 281 283
322 289 251 277 300 261 235 227 227 225 228 218 216 212 213 210 212 210 212 221 225 227 223 221 229 231 238 244 247 250 253 256 259 257 259 263 276 278 281 255 301 293 290
303 303 274 245 268 292 248 248 272 246 247 242 229 219 214 213 208 208 208 212 214 209 206 201 213 212 228 245 249 253 250 256 262 266 263 265 262 266 265 260 296 305 297
289 286 282 274 247 263 244 238 234 235 232 232 230 224 213 208 213 204 191 195 194 193 197 201 211 246 255 260 268 275 278 279 271 261 263 263 262 265 270 273 293 304 312
287 278 271 265 255 248 249 238 233 232 236 228 228 223 216 211 212 210 201 195 199 201 206 212 230 248 269 274 292 302 300 293 281 268 257 257 263 267 263 260 267 288 285
284 279 271 264 259 253 247 243 234 229 227 221 224 224 222 216 215 215 212 210 211 216 220 228 252 258 274 282 295 296 302 299 285 281 277 266 266 265 263 243 255 270 275
281 275 271 262 255 251 247 243 238 234 226 224 222 220 219 220 220 222 222 224 222 225 230 235 245 263 270 284 288 297 298 302 304 293 278 263 263 262 254 256 254 251 253
279 273 267 260 251 248 245 242 236 232 229 223 220 217 220 219 223 225 224 221 226 229 235 238 252 258 265 280 282 288 291 297 306 299 281 277 270 260 255 248 240 251 236
274 271 261 255 250 248 244 236 232 227 225 226 221 217 219 225 219 230 227 227 226 233 236 239 249 260 263 268 279 282 289 298 298 301 283 276 270 268 255 246 234 228 225
276 268 262 252 250 246 241 236 231 227 223 218 215 216 220 216 223 225 228 228 226 226 234 240 245 250 262 272 277 285 288 290 294 295 279 272 277 274 261 230 206 211 223
270 266 252 255 251 248 244 235 230 225 222 221 220 221 221 220 218 223 224 226 228 226 228 235 240 247 257 270 277 283 281 288 291 285 278 282 284 270 229 194 203 210 219
264 261 258 254 249 243 237 234 232 227 225 224 223 224 224 224 221 221 224 224 224 225 228 232 239 249 258 260 268 277 281 279 279 281 277 278 279 215 197 188 204 212 204
267 258 259 250 243 238 228 228 234 228 226 225 226 225 223 223 223 221 220 223 227 232 232 239 244 250 254 259 263 266 268 273 272 268 270 267 215 201 180 200 201 200 192
262 264 252 250 240 237 234 235 235 234 224 223 223 222 226 227 226 226 226 225 224 224 232 237 242 245 248 254 257 261 263 268 266 252 247 238 206 195 206 207 194 193 191
258 253 255 252 245 238 237 235 232 235 234 229 228 223 215 210 224 226 225 229 234 235 236 237 240 239 242 246 250 254 259 263 252 237 237 217 210 206 199 185 188 186 180
257 253 251 247 245 242 240 234 235 234 230 234 226 226 230 227 220 217 224 225 225 224 224 231 233 234 236 240 244 249 253 252 234 229 226 206 211 220 191 186 182 178 175
260 259 256 252 251 247 240 235 232 229 231 231 231 227 221 221 218 211 207 213 219 222 226 222 227 228 233 237 240 242 244 242 227 221 218 216 212 192 181 177 179 174 167
270 263 261 262 260 251 244 237 233 228 226 216 214 220 219 213 214 211 214 217 216 219 218 224 228 228 230 228 233 234 234 222 224 215 212 206 185 181 181 175 174 170 164
279 278 277 271 264 251 244 234 227 223 222 220 220 218 219 213 208 209 209 210 212 210 217 224 226 228 226 218 222 225 225 218 217 214 200 188 175 170 172 171 176 173 168
319 322 301 292 287 261 238 226 220 216 213 211 211 217 211 210 206 204 205 207 210 212 219 220 223 217 219 210 220 221 218 217 213 208 201 177 170 162 164 165 160 152 149
18 58 44 23 24 349 220 213 199 198 200 201 204 208 204 206 204 204 199 205 209 212 213 218 211 212 211 217 217 209 214 202 194 175 172 170 162 160 162 158 155 150 148
62 83 59 75 74 79 95 118 140 158 173 180 192 198 196 194 196 193 197 200 201 204 209 208 209 209 219 207 197 212 196 182 174 171 170 164 162 158 155 150 156 159 161
80 94 87 79 84 93 98 111 125 140 151 160 168 175 178 181 185 185 187 189 192 197 199 203 209 196 180 202 192 179 183 181 167 162 161 161 160 157 150 160 156 156 160
82 87 93 104 106 112 112 118 125 132 134 136 153 157 157 159 171 177 181 185 191 197 191 185 177 190 181 166 169 167 161 158 160 155 162 162 167 158 154 154 156 160 161